DW3884 Weather Reports


Display with metric or nautical units.
time (UTC)temp
F
wind
direction
speed
MPH
gust
MPH
rain 1hr
in
rain 24hr
in
rain mn
in
humidity
%
barometer
mb
20260505093841 53 45 0.0 0.0 0.00 0.00 0.00 91 1012.5
20260505093327 53 45 0.0 0.0 0.00 0.00 0.00 91 1012.5
20260505092821 53 45 0.0 0.0 0.00 0.00 0.00 91 1012.5
20260505092315 53 45 0.0 0.0 0.00 0.00 0.00 91 1012.4
20260505091810 53 45 0.0 0.0 0.00 0.00 0.00 91 1012.4
20260505091303 53 45 0.0 0.0 0.00 0.00 0.00 91 1012.4
20260505090757 53 45 0.0 0.0 0.00 0.00 0.00 91 1012.3
20260505090251 53 45 0.0 0.0 0.00 0.00 0.00 91 1012.3
20260505085745 53 45 0.0 0.0 0.00 0.00 0.00 91 1012.2
20260505085239 54 45 0.0 0.0 0.00 0.00 0.00 91 1012.3
20260505084733 54 45 0.0 0.0 0.00 0.00 0.00 91 1012.2
20260505084227 54 45 0.0 0.0 0.00 0.00 0.00 90 1012.2
20260505084201 54 45 0.0 0.0 0.00 0.00 0.00 90 1012.2
20260505083215 54 45 0.0 0.0 0.00 0.00 0.00 90 1012.2
20260505082715 54 45 0.0 0.0 0.00 0.00 0.00 90 1012.2
20260505082213 54 45 0.0 0.0 0.00 0.00 0.00 90 1012.2
20260505081712 54 45 0.0 0.0 0.00 0.00 0.00 90 1012.2
20260505081209 55 45 0.0 0.0 0.00 0.00 0.00 90 1012.2
20260505080707 55 45 0.0 0.0 0.00 0.00 0.00 89 1012.1
20260505080207 55 45 0.0 0.0 0.00 0.00 0.00 89 1012.1
20260505075708 55 45 0.0 0.0 0.00 0.00 0.00 89 1012.1
20260505075205 55 45 0.0 0.0 0.00 0.00 0.00 89 1012.0
20260505074703 55 45 0.0 0.0 0.00 0.00 0.00 89 1012.0
20260505074204 56 45 0.0 0.0 0.00 0.00 0.00 88 1011.9
20260505073703 56 45 0.0 0.0 0.00 0.00 0.00 88 1011.9
20260505073201 56 45 0.0 0.0 0.00 0.00 0.00 87 1011.8
20260505072659 56 45 0.0 0.0 0.00 0.00 0.00 87 1011.8
20260505072158 56 45 0.0 0.0 0.00 0.00 0.00 87 1011.8
20260505071655 56 45 0.0 0.0 0.00 0.00 0.00 87 1011.7
20260505071154 57 45 0.0 0.0 0.00 0.00 0.00 87 1011.6
20260505070651 57 45 0.0 0.0 0.00 0.00 0.00 87 1011.6
20260505070149 57 45 0.0 0.0 0.00 0.00 0.00 86 1011.5
20260505065646 57 45 0.0 0.0 0.00 0.00 0.00 86 1011.5
20260505065408 57 45 0.0 0.0 0.00 0.00 0.00 86 1011.5
20260505064907 58 45 0.0 0.0 0.00 0.00 0.00 86 1011.4
20260505064142 58 45 0.0 0.0 0.00 0.00 0.00 85 1011.3
20260505063642 58 45 0.0 0.0 0.00 0.00 0.00 85 1011.2
20260505063141 58 45 0.0 0.0 0.00 0.00 0.00 86 1011.2
20260505062642 58 51 0.0 0.0 0.00 0.00 0.00 86 1011.1
20260505062404 58 51 0.0 1.0 0.00 0.00 0.00 85 1011.1
20260505061642 59 51 0.0 1.0 0.00 0.00 0.00 86 1011.1
20260505061405 59 51 0.0 1.0 0.00 0.00 0.00 85 1011.0
20260505060908 59 51 0.0 0.0 0.00 0.00 0.00 85 1011.0
20260505060138 59 104 0.0 0.0 0.00 0.00 0.00 84 1010.9
20260505055638 60 104 0.0 0.0 0.00 0.00 0.00 83 1010.9
20260505055138 60 104 0.0 0.0 0.00 0.00 0.00 83 1010.8
20260505054638 60 104 0.0 0.0 0.00 0.00 0.00 82 1010.8
20260505054358 60 104 0.0 0.0 0.00 0.00 0.00 83 1010.8
20260505053638 60 104 0.0 0.0 0.00 0.00 0.00 82 1010.8
20260505053401 61 104 0.0 0.0 0.00 0.00 0.00 81 1010.8
20260505052638 61 104 0.0 0.0 0.00 0.00 0.00 82 1010.8
20260505052138 61 104 0.0 0.0 0.00 0.00 0.00 81 1010.6
20260505051638 62 104 0.0 0.0 0.00 0.00 0.00 80 1010.6
20260505051141 62 104 0.0 0.0 0.00 0.00 0.00 79 1010.5
20260505050905 62 104 0.0 0.0 0.00 0.00 0.00 79 1010.5
20260505050136 62 104 0.0 0.0 0.00 0.00 0.00 78 1010.4
20260505041629 65 52 0.0 1.0 0.00 0.00 0.00 76 1009.8
20260505041130 65 52 0.0 1.0 0.00 0.00 0.00 75 1009.8
20260505040630 66 52 0.0 1.0 0.00 0.00 0.00 75 1009.7
20260505040127 66 52 0.0 1.0 0.00 0.00 0.00 75 1009.6
20260505035627 67 52 0.0 0.0 0.00 0.00 0.00 74 1009.6
20260505035128 67 52 0.0 0.0 0.00 0.00 0.00 73 1009.5
20260505034628 67 52 0.0 1.0 0.00 0.00 0.00 72 1009.4
20260505034128 68 52 0.0 2.0 0.00 0.00 0.00 71 1009.4
20260505033628 68 52 0.0 2.0 0.00 0.00 0.00 72 1009.3
20260505033127 69 72 0.0 0.0 0.00 0.00 0.00 70 1009.1
20260505032627 69 72 0.0 0.0 0.00 0.00 0.00 71 1009.1
20260505032128 69 72 0.0 1.0 0.00 0.00 0.00 70 1009.0
20260505032114 70 72 0.0 1.0 0.00 0.00 0.00 68 1008.9
20260505031125 70 72 0.0 1.0 0.00 0.00 0.00 67 1008.9
20260505030627 70 72 0.0 2.0 0.00 0.00 0.00 67 1008.8
20260505030128 71 72 0.0 2.0 0.00 0.00 0.00 68 1008.6
20260505025626 71 153 0.0 1.0 0.00 0.00 0.00 70 1008.6
20260505025126 71 165 0.0 1.0 0.00 0.00 0.00 67 1008.5
20260505024626 72 165 0.0 2.0 0.00 0.00 0.00 67 1008.5
20260505024126 72 83 1.0 2.0 0.00 0.00 0.00 66 1008.4
20260505023624 72 83 1.0 2.0 0.00 0.00 0.00 66 1008.4
20260505023124 72 83 1.0 2.0 0.00 0.00 0.00 67 1008.4
20260505022617 73 40 0.0 2.0 0.00 0.00 0.00 66 1008.4
20260505022112 73 87 0.0 2.0 0.00 0.00 0.00 68 1008.3
20260505021606 73 87 0.0 2.0 0.00 0.00 0.00 65 1008.3
20260505021324 73 125 0.0 2.0 0.00 0.00 0.00 65 1008.3
20260505020553 74 54 0.0 1.0 0.00 0.00 0.00 64 1008.3
20260505020047 74 67 0.0 1.0 0.00 0.00 0.00 64 1008.3
20260505015542 74 17 0.0 1.0 0.00 0.00 0.00 63 1008.3
20260505015035 74 77 0.0 2.0 0.00 0.00 0.00 61 1008.3
20260505014529 74 129 1.0 2.0 0.00 0.00 0.00 61 1008.2
20260505014023 74 60 1.0 2.0 0.00 0.00 0.00 60 1008.2
20260505013517 75 71 0.0 2.0 0.00 0.00 0.00 60 1008.3
20260505013013 75 71 1.0 2.0 0.00 0.00 0.00 60 1008.3
20260505012506 75 27 1.0 3.0 0.00 0.00 0.00 61 1008.2
20260505011959 75 87 1.0 3.0 0.00 0.00 0.00 58 1008.3
20260505011717 75 267 0.0 2.0 0.00 0.00 0.00 58 1008.3
20260505010947 75 82 1.0 4.0 0.00 0.00 0.00 58 1008.4
20260505010442 75 7 1.0 4.0 0.00 0.00 0.00 56 1008.3
20260505005936 76 26 1.0 4.0 0.00 0.00 0.00 58 1008.4
20260505005648 76 79 1.0 4.0 0.00 0.00 0.00 56 1008.4
20260505004925 76 135 1.0 3.0 0.00 0.00 0.00 54 1008.4
20260505004418 76 13 1.0 3.0 0.00 0.00 0.00 53 1008.4
20260505003912 76 142 1.0 3.0 0.00 0.00 0.00 54 1008.4
20260505003405 76 125 1.0 3.0 0.00 0.00 0.00 56 1008.4
20260505002859 76 60 1.0 2.0 0.00 0.00 0.00 53 1008.3
20260505002615 76 36 0.0 2.0 0.00 0.00 0.00 53 1008.3
20260505001848 77 64 1.0 4.0 0.00 0.00 0.00 53 1008.3
20260505001342 77 66 1.0 4.0 0.00 0.00 0.00 52 1008.3
20260505000836 77 100 1.0 3.0 0.00 0.00 0.00 53 1008.3
20260505000329 77 116 1.0 2.0 0.00 0.00 0.00 52 1008.4
20260504235824 77 80 1.0 2.0 0.00 0.00 0.00 51 1008.3
20260504235540 77 62 1.0 4.0 0.00 0.00 0.00 49 1008.3
20260504235040 77 138 1.0 4.0 0.00 0.00 0.00 46 1008.4
20260504234305 77 187 1.0 4.0 0.00 0.00 0.00 47 1008.4
20260504233800 77 30 1.0 3.0 0.00 0.00 0.00 47 1008.4
20260504233515 77 61 1.0 3.0 0.00 0.00 0.00 48 1008.4
20260504232748 77 79 2.0 5.0 0.00 0.00 0.00 50 1008.4
20260504232241 77 273 2.0 6.0 0.00 0.00 0.00 49 1008.3
20260504231735 77 167 2.0 6.0 0.00 0.00 0.00 48 1008.4
20260504231229 77 227 2.0 5.0 0.00 0.00 0.00 47 1008.5
20260504230723 78 121 2.0 5.0 0.00 0.00 0.00 47 1008.5
20260504230218 78 68 1.0 4.0 0.00 0.00 0.00 47 1008.6
20260504225712 78 292 1.0 5.0 0.00 0.00 0.00 48 1008.8
20260504225206 78 81 1.0 5.0 0.00 0.00 0.00 48 1008.9
20260504224700 78 40 1.0 3.0 0.00 0.00 0.00 49 1008.9
20260504224153 78 19 0.0 4.0 0.00 0.00 0.00 48 1008.9
20260504223647 78 91 1.0 4.0 0.00 0.00 0.00 48 1008.9
20260504223142 78 116 2.0 4.0 0.00 0.00 0.00 49 1009.0
20260504222636 78 250 1.0 4.0 0.00 0.00 0.00 46 1009.1
20260504222130 78 48 1.0 3.0 0.00 0.00 0.00 49 1009.1
20260504221624 78 88 2.0 4.0 0.00 0.00 0.00 49 1009.2
20260504221118 78 55 1.0 4.0 0.00 0.00 0.00 48 1009.2
20260504220834 79 44 1.0 4.0 0.00 0.00 0.00 50 1009.2
20260504220105 79 111 1.0 3.0 0.00 0.00 0.00 48 1009.2
20260504215601 79 71 1.0 3.0 0.00 0.00 0.00 49 1009.2
20260504215102 79 73 2.0 4.0 0.00 0.00 0.00 49 1009.2
20260504214821 80 100 2.0 4.0 0.00 0.00 0.00 48 1009.3
20260504214106 80 69 1.0 4.0 0.00 0.00 0.00 46 1009.3
20260504213602 80 92 1.0 4.0 0.00 0.00 0.00 50 1009.3
20260504213100 80 56 2.0 5.0 0.00 0.00 0.00 48 1009.4
20260504212601 80 4 2.0 5.0 0.00 0.00 0.00 49 1009.3
20260504212100 80 79 1.0 5.0 0.00 0.00 0.00 47 1009.3
20260504211558 79 60 1.0 5.0 0.00 0.00 0.00 48 1009.4
20260504211056 79 225 1.0 3.0 0.00 0.00 0.00 52 1009.4
20260504210556 78 6 2.0 3.0 0.00 0.00 0.00 52 1009.3
20260504210056 78 38 2.0 4.0 0.00 0.00 0.00 52 1009.4
20260504205553 78 136 1.0 4.0 0.00 0.00 0.00 50 1009.5
20260504205053 77 53 1.0 3.0 0.00 0.00 0.00 52 1009.5
20260504204554 77 34 2.0 3.0 0.00 0.00 0.00 52 1009.5
20260504204053 77 50 2.0 4.0 0.00 0.00 0.00 51 1009.5
20260504203552 77 88 1.0 4.0 0.00 0.00 0.00 51 1009.4
20260504203057 77 87 1.0 3.0 0.00 0.00 0.00 55 1009.4
20260504202556 77 36 2.0 4.0 0.00 0.00 0.00 55 1009.5
20260504202050 77 17 2.0 4.0 0.00 0.00 0.00 53 1009.5
20260504201811 77 19 1.0 4.0 0.00 0.00 0.00 54 1009.5
20260504201038 77 12 1.0 4.0 0.00 0.00 0.00 55 1009.5
20260504200532 77 2 1.0 3.0 0.00 0.00 0.00 54 1009.6
20260504200026 77 91 2.0 4.0 0.00 0.00 0.00 54 1009.7
20260504195520 77 210 2.0 4.0 0.00 0.00 0.00 53 1009.7
20260504195010 77 71 1.0 4.0 0.00 0.00 0.00 51 1009.7
20260504194725 77 14 2.0 4.0 0.00 0.00 0.00 52 1009.7
20260504193958 78 343 1.0 4.0 0.00 0.00 0.00 50 1009.8
20260504193456 78 327 1.0 4.0 0.00 0.00 0.00 52 1009.8
20260504192943 78 304 1.0 2.0 0.00 0.00 0.00 51 1009.8
20260504192436 78 58 1.0 4.0 0.00 0.00 0.00 50 1009.8
20260504191930 78 147 1.0 4.0 0.00 0.00 0.00 50 1009.8
20260504191424 77 44 1.0 3.0 0.00 0.00 0.00 50 1009.9
20260504190917 77 12 1.0 5.0 0.00 0.00 0.00 59 1009.9
20260504190412 77 52 2.0 4.0 0.00 0.00 0.00 52 1009.9
20260504185906 77 42 2.0 3.0 0.00 0.00 0.00 52 1010.0
20260504185400 77 23 1.0 3.0 0.00 0.00 0.00 51 1010.0
20260504184855 77 62 1.0 3.0 0.00 0.00 0.00 53 1010.0
20260504184348 77 326 1.0 4.0 0.00 0.00 0.00 55 1010.0
20260504183843 77 330 2.0 4.0 0.00 0.00 0.00 52 1010.0
20260504183336 76 239 1.0 3.0 0.00 0.00 0.00 52 1010.1
20260504182831 76 190 1.0 3.0 0.00 0.00 0.00 52 1010.3
20260504182324 76 75 0.0 2.0 0.00 0.00 0.00 57 1010.3
20260504181818 75 74 1.0 4.0 0.00 0.00 0.00 56 1010.3
20260504181312 75 57 1.0 4.0 0.00 0.00 0.00 61 1010.3
20260504180806 74 69 1.0 4.0 0.00 0.00 0.00 58 1010.3
20260504180522 74 121 1.0 4.0 0.00 0.00 0.00 59 1010.2
20260504175754 73 233 1.0 3.0 0.00 0.00 0.00 62 1010.3
20260504175248 72 14 1.0 3.0 0.00 0.00 0.00 60 1010.3
20260504174743 72 321 1.0 3.0 0.00 0.00 0.00 63 1010.2
20260504174236 71 326 1.0 3.0 0.00 0.00 0.00 65 1010.3
20260504173731 71 327 1.0 3.0 0.00 0.00 0.00 66 1010.2
20260504173224 71 60 0.0 2.0 0.00 0.00 0.00 64 1010.3
20260504172718 71 50 1.0 2.0 0.00 0.00 0.00 62 1010.2
20260504172212 71 98 1.0 3.0 0.00 0.00 0.00 63 1010.3
20260504171705 71 327 0.0 3.0 0.00 0.00 0.00 63 1010.2
20260504171200 71 5 0.0 2.0 0.00 0.00 0.00 63 1010.2
20260504170918 71 4 1.0 3.0 0.00 0.00 0.00 63 1010.2
20260504170148 71 106 1.0 3.0 0.00 0.00 0.00 61 1010.2
20260504150935 54 60 0.0 0.0 0.00 0.00 0.00 93 1009.7
20260504150429 54 60 0.0 0.0 0.00 0.00 0.00 94 1009.7
20260504141329 51 59 0.0 0.0 0.00 0.00 0.00 93 1009.4
20260504140830 51 59 0.0 0.0 0.00 0.00 0.00 93 1009.3
20260504140328 51 59 0.0 0.0 0.00 0.00 0.00 93 1009.3
20260504130814 51 79 0.0 0.0 0.00 0.00 0.00 93 1008.6
20260504130314 51 79 0.0 0.0 0.00 0.00 0.00 93 1008.6
20260504120232 51 50 0.0 0.0 0.00 0.00 0.00 92 1008.6
20260504110626 52 50 0.0 0.0 0.00 0.00 0.00 91 1008.5
20260504110342 52 50 0.0 0.0 0.00 0.00 0.00 91 1008.5
20260504100514 54 50 0.0 0.0 0.00 0.00 0.00 91 1008.5